Location: Stoke Bliss
(52.2667°N, 2.5167°W)
Time: 17:40:52
(UTC+00:00)

MOS 1 Rocket - Pass Details

Date: 03 March 2021
Orbit: 615 x 829 km, 97.4° (Epoch: 17 April)

Event Time Altitude Azimuth Distance (km) Brightness Sun altitude
Rises 18:30:50 0° 12° (NNE) 3,155 6.5 -6.5°
Reaches altitude 10° 18:33:04 10° 11° (NNE) 2,262 5.8 -6.9°
Maximum altitude 18:38:04 80° 286° (WNW) 791 3.7 -7.6°
Drops below altitude 10° 18:43:20 10° 200° (SSW) 2,370 6.3 -8.4°
Sets 18:45:43 0° 199° (SSW) 3,318 7.1 -8.8°
